Flight Track Log - Related Links

Times and Time Zones

All times are in EDT time to prevent confusion due to time zone crossing. See the DAL42 flight status page for this flight to view local times or setup timezone preferences in your user account.

Time Position Orientation Groundspeed Altitude Reporting Facility
EDT Latitude Longitude Course Direction KTS MPH feet Rate Location/Type
Wed 11:25:32 PM 33.6333 -84.3667 53° Northeast 194 223 3,000  Level Atlanta TRACON
Wed 11:26:38 PM 33.6333 -84.2667 90° East 244 281 5,500 2,300 Climbing Atlanta TRACON
Wed 11:27:32 PM 33.6500 -84.2000 73° East 267 307 7,600 2,261 Climbing Atlanta TRACON
Wed 11:28:00 PM 33.8556 -83.8019 54° Northeast  Level FlightAware Approximate
Wed 11:28:56 PM 33.7067 -84.1036 55° Northeast 299 344 10,700  Level Atlanta Center
Wed 11:29:00 PM 33.9457 -83.6702 53° Northeast  Level FlightAware Approximate
Wed 11:29:56 PM 33.7547 -84.0139 57° Northeast 314 361 11,900  Level Atlanta Center
Wed 11:30:00 PM 34.0308 -83.5335 53° Northeast  Level FlightAware Approximate
Wed 11:30:56 PM 33.8192 -83.9039 55° Northeast 347 399 13,500  Level Atlanta Center
Wed 11:31:56 PM 33.8836 -83.7936 55° Northeast 384 442 15,700 2,150 Climbing Atlanta Center
Wed 11:32:56 PM 33.9481 -83.6806 55° Northeast 396 456 17,800 1,850 Climbing Atlanta Center
Wed 11:33:56 PM 34.0231 -83.5675 51° Northeast 408 470 19,400 1,650 Climbing Atlanta Center
Wed 11:34:56 PM 34.0956 -83.4517 53° Northeast 423 487 21,100 1,600 Climbing Atlanta Center
Wed 11:35:56 PM 34.1700 -83.3283 54° Northeast 438 504 22,600 1,500 Climbing Atlanta Center
Wed 11:36:56 PM 34.2464 -83.2069 53° Northeast 454 522 24,100 1,400 Climbing Atlanta Center
Wed 11:37:56 PM 34.3269 -83.0781 53° Northeast 467 537 25,400 1,250 Climbing Atlanta Center
Wed 11:38:56 PM 34.4050 -82.9486 54° Northeast 479 551 26,600 1,500 Climbing Atlanta Center
Wed 11:39:56 PM 34.4875 -82.8192 52° Northeast 484 557 28,400 1,650 Climbing Atlanta Center
Wed 11:40:56 PM 34.5653 -82.6892 54° Northeast 474 545 29,900 1,150 Climbing Atlanta Center
Wed 11:41:56 PM 34.6392 -82.5769 51° Northeast 474 545 30,700 550 Climbing Atlanta Center
Wed 11:42:56 PM 34.7189 -82.4492 53° Northeast 474 545 31,000 150 Climbing Atlanta Center
Wed 11:43:56 PM 34.7986 -82.3136 54° Northeast 480 552 31,000  Level Atlanta Center
Wed 11:44:56 PM 34.8781 -82.1803 54° Northeast 485 558 31,000  Level Atlanta Center
Wed 11:45:56 PM 34.9614 -82.0542 51° Northeast 480 552 31,000  Level Atlanta Center
Wed 11:46:56 PM 35.0386 -81.9181 55° Northeast 486 559 31,000  Level Atlanta Center
Wed 11:47:56 PM 35.1194 -81.7686 56° Northeast 486 559 31,000  Level Atlanta Center
Wed 11:48:56 PM 35.1917 -81.6269 58° Northeast 481 554 31,000  Level Atlanta Center
Wed 11:49:56 PM 35.2642 -81.4900 57° Northeast 486 559 31,000  Level Atlanta Center
Wed 11:50:56 PM 35.3383 -81.3503 57° Northeast 486 559 31,000  Level Atlanta Center
Wed 11:51:56 PM 35.4167 -81.2125 55° Northeast 486 559 31,000  Level Atlanta Center
Wed 11:52:56 PM 35.5117 -81.0894 46° Northeast 486 559 31,000  Level Atlanta Center
Wed 11:53:56 PM 35.6131 -80.9658 45° Northeast 499 574 31,000  Level Atlanta Center
Wed 11:54:56 PM 35.7081 -80.8469 45° Northeast 499 574 31,000  Level Atlanta Center
Wed 11:57:04 PM 35.9142 -80.5828 46° Northeast 503 579 31,000  Level Washington Center
Wed 11:58:05 PM 36.0067 -80.4628 46° Northeast 496 571 31,000  Level Washington Center
Wed 11:59:05 PM 36.1017 -80.3378 47° Northeast 496 571 31,000  Level Washington Center
Thu 12:00:06 AM 36.1939 -80.2172 47° Northeast 491 565 31,000  Level Washington Center
Thu 12:01:05 AM 36.2817 -80.1039 46° Northeast 491 565 31,000  Level Washington Center
Thu 12:02:06 AM 36.3717 -79.9850 47° Northeast 484 557 31,000  Level Washington Center
Thu 12:03:04 AM 36.4636 -79.8639 47° Northeast 484 557 31,000  Level Washington Center
Thu 12:04:04 AM 36.5578 -79.7422 46° Northeast 479 551 31,000  Level Washington Center
Thu 12:05:04 AM 36.6606 -79.6028 47° Northeast 484 557 31,000  Level Washington Center
Thu 12:06:06 AM 36.7544 -79.4781 47° Northeast 484 557 31,000  Level Washington Center
Thu 12:07:06 AM 36.8461 -79.3528 48° Northeast 484 557 31,000  Level Washington Center
Thu 12:08:04 AM 36.9394 -79.2300 46° Northeast 478 550 31,000  Level Washington Center
Thu 12:09:03 AM 37.0222 -79.1142 48° Northeast 478 550 31,000  Level Washington Center
Thu 12:10:04 AM 37.1156 -78.9908 46° Northeast 478 550 31,000  Level Washington Center
Thu 12:11:06 AM 37.2194 -78.8519 47° Northeast 484 557 31,000  Level Washington Center
Thu 12:12:04 AM 37.3125 -78.7256 47° Northeast 484 557 31,000  Level Washington Center
Thu 12:13:06 AM 37.4056 -78.5986 47° Northeast 484 557 31,000  Level Washington Center
Thu 12:14:04 AM 37.4964 -78.4739 47° Northeast 484 557 31,000  Level Washington Center
Thu 12:15:04 AM 37.5803 -78.3592 47° Northeast 484 557 31,000  Level Washington Center
Thu 12:16:04 AM 37.6728 -78.2311 48° Northeast 484 557 31,000  Level Washington Center
Thu 12:17:03 AM 37.7697 -78.0928 48° Northeast 484 557 31,000  Level Washington Center
Thu 12:18:03 AM 37.8619 -77.9617 48° Northeast 484 557 31,000  Level Washington Center
Thu 12:19:03 AM 37.9519 -77.8356 48° Northeast 479 551 31,000  Level Washington Center
Thu 12:20:04 AM 38.0314 -77.7244 48° Northeast 472 543 31,000  Level Washington Center
Thu 12:21:05 AM 38.1211 -77.5978 48° Northeast 472 543 31,000  Level Washington Center
Thu 12:22:03 AM 38.2128 -77.4706 47° Northeast 477 549 31,000  Level Washington Center
Thu 12:23:05 AM 38.3022 -77.3381 49° Northeast 483 556 31,000  Level Washington Center
Thu 12:24:04 AM 38.3917 -77.2103 48° Northeast 483 556 31,000  Level Washington Center
Thu 12:25:04 AM 38.4808 -77.0794 49° Northeast 478 550 31,000  Level Washington Center
Thu 12:26:06 AM 38.5722 -76.9514 48° Northeast 478 550 31,000  Level Washington Center
Thu 12:27:03 AM 38.6589 -76.8200 50° Northeast 478 550 31,000  Level Washington Center
Thu 12:28:03 AM 38.7500 -76.6911 48° Northeast 478 550 31,000  Level Washington Center
Thu 12:29:03 AM 38.8492 -76.5458 49° Northeast 485 558 31,000  Level Washington Center
Thu 12:30:05 AM 38.9397 -76.4136 49° Northeast 485 558 31,000  Level Washington Center
Thu 12:31:06 AM 39.0281 -76.2783 50° Northeast 480 552 31,000 -51 Level Washington Center
Thu 12:32:03 AM 39.1100 -76.1586 49° Northeast 480 552 30,900  Descending Washington Center
Thu 12:33:04 AM 39.1794 -76.0014 60° Northeast 493 567 31,000 50 Climbing Washington Center
Thu 12:34:04 AM 39.2444 -75.8408 62° Northeast 499 574 31,000  Level Washington Center
Thu 12:35:04 AM 39.3114 -75.6856 61° Northeast 499 574 31,000  Level Washington Center
Thu 12:36:05 AM 39.3822 -75.5244 60° Northeast 499 574 31,000  Level Washington Center
Thu 12:37:05 AM 39.4486 -75.3658 62° Northeast 499 574 31,000  Level Washington Center
Thu 12:38:04 AM 39.5169 -75.2069 61° Northeast 499 574 31,000  Level Washington Center
Thu 12:39:05 AM 39.5914 -75.0261 62° Northeast 501 577 31,000  Level Washington Center
Thu 12:40:05 AM 39.6511 -74.8800 62° Northeast 501 577 31,000  Level Washington Center
Thu 12:41:03 AM 39.7247 -74.7011 62° Northeast 506 582 31,000  Level Washington Center
Thu 12:42:54 AM 39.8428 -74.4181 61° Northeast 514 592 31,000  Level Boston Center
Thu 12:43:54 AM 39.9122 -74.2550 61° Northeast 509 586 31,000  Level Boston Center
Thu 12:44:54 AM 39.9772 -74.0917 63° Northeast 509 586 31,000  Level Boston Center
Thu 12:45:54 AM 40.0564 -73.9336 57° Northeast 509 586 31,000  Level Boston Center
Thu 12:46:54 AM 40.1356 -73.7836 55° Northeast 509 586 31,000  Level Boston Center
Thu 12:47:54 AM 40.2183 -73.6331 54° Northeast 504 580 31,000  Level Boston Center
Thu 12:48:54 AM 40.2992 -73.4847 54° Northeast 504 580 31,000  Level Boston Center
Thu 12:49:54 AM 40.3817 -73.3336 54° Northeast 509 586 31,000  Level Boston Center
Thu 12:50:54 AM 40.4619 -73.1792 56° Northeast 509 586 31,000 100 Level Boston Center
Thu 12:51:54 AM 40.5442 -73.0272 55° Northeast 509 586 31,200 650 Climbing Boston Center
Thu 12:52:54 AM 40.6281 -72.8747 54° Northeast 515 593 32,300 900 Climbing Boston Center
Thu 12:53:54 AM 40.7119 -72.7222 54° Northeast 510 587 33,000 350 Climbing Boston Center
Thu 12:54:54 AM 40.8061 -72.5469 55° Northeast 521 600 33,000  Level Boston Center
Thu 12:55:54 AM 40.8875 -72.3906 55° Northeast 521 600 33,000  Level Boston Center
Thu 12:56:54 AM 40.9686 -72.2367 55° Northeast 516 594 33,000  Level Boston Center
Thu 12:57:54 AM 41.0514 -72.0794 55° Northeast 516 594 33,000  Level Boston Center
Thu 12:58:54 AM 41.1197 -71.9469 56° Northeast 521 600 33,000  Level Boston Center
Thu 12:59:54 AM 41.2083 -71.7697 56° Northeast 521 600 33,000  Level Boston Center
Thu 01:00:54 AM 41.2989 -71.5975 55° Northeast 521 600 33,000  Level Boston Center
Thu 01:01:54 AM 41.3872 -71.4414 53° Northeast 515 593 33,000  Level Boston Center
Thu 01:02:54 AM 41.4692 -71.2767 56° Northeast 522 601 33,000  Level Boston Center
Thu 01:03:54 AM 41.5528 -71.1114 56° Northeast 527 606 33,000  Level Boston Center
Thu 01:04:54 AM 41.6319 -70.9486 57° Northeast 527 606 33,000  Level Boston Center
Thu 01:05:54 AM 41.7028 -70.7911 59° Northeast 534 615 33,000  Level Boston Center
Thu 01:06:54 AM 41.7939 -70.6161 55° Northeast 527 606 33,000  Level Boston Center
Thu 01:07:54 AM 41.8786 -70.4519 55° Northeast 527 606 33,000  Level Boston Center
Thu 01:08:54 AM 41.9589 -70.2847 57° Northeast 527 606 33,000  Level Boston Center
Thu 01:09:54 AM 42.0231 -70.1511 57° Northeast 527 606 33,000  Level Boston Center
Thu 01:10:54 AM 42.1169 -69.9658 56° Northeast 538 619 33,000  Level Boston Center
Thu 01:11:54 AM 42.1989 -69.8000 56° Northeast 539 620 33,000  Level Boston Center
Thu 01:12:54 AM 42.2881 -69.6139 57° Northeast 534 615 33,000  Level Boston Center
Thu 01:13:54 AM 42.3650 -69.4444 58° Northeast 534 615 33,000  Level Boston Center
Thu 01:14:54 AM 42.4478 -69.2689 57° Northeast 540 621 33,000  Level Boston Center
Thu 01:15:54 AM 42.5264 -69.1014 57° Northeast 540 621 33,000  Level Boston Center
Thu 01:16:54 AM 42.5992 -68.9536 56° Northeast 530 610 33,000  Level Boston Center
Thu 01:17:54 AM 42.6792 -68.7853 57° Northeast 530 610 33,000  Level Boston Center
Thu 01:18:54 AM 42.7569 -68.6136 58° Northeast 535 616 33,000  Level Boston Center
Thu 01:19:54 AM 42.8389 -68.4472 56° Northeast 535 616 33,000  Level Boston Center
Thu 01:20:54 AM 42.9181 -68.2717 58° Northeast 535 616 33,000  Level Boston Center
Thu 01:21:54 AM 42.9972 -68.1017 57° Northeast 535 616 33,000  Level Boston Center
Thu 01:22:54 AM 43.0761 -67.9283 58° Northeast 540 621 33,000  Level Boston Center
Thu 01:23:54 AM 43.1525 -67.7547 59° Northeast 540 621 33,000  Level Boston Center
Thu 01:24:58 AM 43.2167 -67.5333 68° East 540 621 33,000  Level Moncton Center
Thu 01:25:58 AM 43.3167 -67.3833 47° Northeast 540 621 33,000  Level Moncton Center
Thu 01:26:58 AM 43.3833 -67.1833 65° Northeast 540 621 33,000  Level Moncton Center
Thu 01:27:58 AM 43.4667 -67.0167 55° Northeast 540 621 33,000  Level Moncton Center
Thu 01:28:58 AM 43.5333 -66.8333 63° Northeast 540 621 33,000  Level Moncton Center
Thu 01:29:58 AM 43.6167 -66.6667 55° Northeast 540 621 33,000  Level Moncton Center
Thu 01:30:58 AM 43.7000 -66.4833 58° Northeast 540 621 33,000  Level Moncton Center
Thu 01:31:58 AM 43.7667 -66.3000 63° Northeast 540 621 33,000  Level Moncton Center
Thu 01:32:58 AM 43.8500 -66.1333 55° Northeast 540 621 33,000  Level Moncton Center
Thu 01:33:58 AM 43.9333 -65.9500 58° Northeast 540 621 33,000  Level Moncton Center
Thu 01:34:58 AM 44.0000 -65.7667 63° Northeast 540 621 33,000  Level Moncton Center
Thu 01:35:58 AM 44.0833 -65.5833 58° Northeast 540 621 33,000  Level Moncton Center
Thu 01:36:58 AM 44.1500 -65.4000 63° Northeast 540 621 33,000  Level Moncton Center
Thu 01:37:58 AM 44.2333 -65.2167 58° Northeast 540 621 33,000  Level Moncton Center
Thu 01:38:58 AM 44.3000 -65.0500 61° Northeast 540 621 33,000  Level Moncton Center
Thu 01:39:58 AM 44.3833 -64.8333 62° Northeast 540 621 33,000  Level Moncton Center
Thu 01:40:58 AM 44.4500 -64.6833 58° Northeast 540 621 33,000  Level Moncton Center
Thu 01:41:58 AM 44.5167 -64.4833 65° Northeast 540 621 33,000  Level Moncton Center
Thu 01:42:58 AM 44.6000 -64.3000 57° Northeast 540 621 33,000  Level Moncton Center
Thu 01:43:58 AM 44.6667 -64.1167 63° Northeast 540 621 33,000  Level Moncton Center
Thu 01:44:58 AM 44.7333 -63.9500 61° Northeast 540 621 33,000  Level Moncton Center
Thu 01:45:58 AM 44.8167 -63.7667 57° Northeast 540 621 33,000  Level Moncton Center
Thu 01:46:58 AM 44.8833 -63.5667 65° Northeast 540 621 33,000  Level Moncton Center
Thu 01:47:58 AM 44.9500 -63.4000 60° Northeast 540 621 33,000  Level Moncton Center
Thu 01:48:58 AM 45.0333 -63.2167 57° Northeast 540 621 33,000  Level Moncton Center
Thu 01:49:58 AM 45.1000 -63.0000 66° East 540 621 33,000  Level Moncton Center
Thu 01:50:58 AM 45.1833 -62.8333 55° Northeast 540 621 33,000  Level Moncton Center
Thu 01:51:58 AM 45.2500 -62.6167 66° East 550 633 33,000  Level Moncton Center
Thu 01:52:58 AM 45.3167 -62.4500 60° Northeast 550 633 33,000  Level Moncton Center
Thu 01:53:58 AM 45.4000 -62.2333 61° Northeast 550 633 33,000  Level Moncton Center
Thu 01:54:58 AM 45.4667 -62.0333 65° Northeast 550 633 33,000  Level Moncton Center
Thu 01:55:58 AM 45.5333 -61.8667 60° Northeast 560 644 33,000  Level Moncton Center
Thu 01:56:58 AM 45.6000 -61.6500 66° East 550 633 33,000  Level Moncton Center
Thu 01:57:58 AM 45.6667 -61.4500 64° Northeast 560 644 33,000  Level Moncton Center
Thu 01:58:58 AM 45.7500 -61.2500 59° Northeast 560 644 33,000  Level Moncton Center
Thu 01:59:58 AM 45.8333 -61.0667 57° Northeast 560 644 33,000  Level Moncton Center
Thu 02:00:58 AM 45.8833 -60.8667 70° East 560 644 33,000  Level Moncton Center
Thu 02:01:58 AM 45.9667 -60.6667 59° Northeast 560 644 33,000  Level Moncton Center
Thu 02:02:58 AM 46.0167 -60.4667 70° East 560 644 33,000  Level Moncton Center
Thu 02:03:58 AM 46.1000 -60.2500 61° Northeast 570 656 33,000  Level Moncton Center
Thu 02:04:58 AM 46.1833 -60.0500 59° Northeast 560 644 33,000  Level Moncton Center
Thu 02:05:58 AM 46.2333 -59.8500 70° East 560 644 33,000  Level Moncton Center
Thu 02:06:58 AM 46.3167 -59.6500 59° Northeast 560 644 33,000  Level Moncton Center
Thu 02:07:58 AM 46.3833 -59.4500 64° Northeast 560 644 33,000  Level Moncton Center
Thu 02:08:58 AM 46.4500 -59.2167 67° East 570 656 33,000  Level Moncton Center
Thu 02:09:58 AM 46.5167 -59.0167 64° Northeast 570 656 33,000  Level Moncton Center
Thu 02:10:58 AM 46.5667 -58.8167 70° East 570 656 33,000  Level Moncton Center
Thu 02:11:58 AM 46.6500 -58.5833 62° Northeast 570 656 33,000  Level Moncton Center
Thu 02:12:58 AM 46.7167 -58.3833 64° Northeast 570 656 33,000  Level Moncton Center
Thu 02:13:58 AM 46.8000 -58.1833 59° Northeast 580 667 33,000  Level Moncton Center
Thu 02:14:58 AM 46.8500 -57.9833 70° East 570 656 33,000  Level Moncton Center
Thu 02:15:58 AM 46.9167 -57.7500 67° East 580 667 33,000  Level Moncton Center
Thu 02:16:58 AM 46.9833 -57.5500 64° Northeast 580 667 33,000  Level Moncton Center
Thu 02:17:58 AM 47.0667 -57.3167 62° Northeast 580 667 33,000  Level Moncton Center
Thu 02:18:58 AM 47.1167 -57.1167 70° East 590 679 33,000  Level Moncton Center
Thu 02:19:58 AM 47.1833 -56.8833 67° East 580 667 33,000  Level Moncton Center
Thu 02:20:58 AM 47.2500 -56.6667 66° East 590 679 33,000  Level Moncton Center
Thu 02:21:58 AM 47.3167 -56.4333 67° East 590 679 33,000  Level Moncton Center
Thu 02:22:58 AM 47.3833 -56.2333 64° Northeast 590 679 33,000  Level Moncton Center
Thu 02:23:58 AM 47.4333 -56.0000 72° East 590 679 33,000  Level Moncton Center
Thu 02:24:58 AM 47.5000 -55.7667 67° East 590 679 33,000  Level Moncton Center
Thu 02:25:58 AM 47.5667 -55.5500 65° Northeast 590 679 33,000  Level Moncton Center
Thu 02:26:58 AM 47.6333 -55.3333 65° Northeast 580 667 33,000  Level Moncton Center
Thu 02:28:07 AM 47.7000 -55.0667 70° East 590 679 33,000  Level Gander Center
Thu 02:29:07 AM 47.7833 -54.8333 62° Northeast 590 679 33,000  Level Gander Center
Thu 02:30:07 AM 47.8333 -54.6000 72° East 590 679 33,000  Level Gander Center
Thu 02:31:07 AM 47.9000 -54.3667 67° East 600 690 33,000  Level Gander Center
Thu 02:32:07 AM 47.9500 -54.1667 69° East 600 690 33,000  Level Gander Center
Thu 02:33:07 AM 48.0167 -53.9000 69° East 600 690 33,000  Level Gander Center
Thu 02:34:07 AM 48.0667 -53.7000 69° East 590 679 33,000  Level Gander Center
Thu 02:35:07 AM 48.1500 -53.4667 62° Northeast 600 690 33,000  Level Gander Center
Thu 02:36:07 AM 48.2167 -53.2167 68° East 600 690 33,000  Level Gander Center
Thu 02:37:07 AM 48.2667 -52.9833 72° East 600 690 33,000  Level Gander Center
Thu 02:37:58 AM 48.3167 -52.7833 69° East 600 690 33,000  Level Moncton Center
Thu 02:38:58 AM 48.3667 -52.5500 72° East 600 690 33,000  Level Moncton Center
Thu 02:39:58 AM 48.4167 -52.3000 73° East 600 690 33,000  Level Moncton Center
Thu 02:40:58 AM 48.4833 -52.0833 65° Northeast 600 690 33,000  Level Moncton Center
Thu 02:43:07 AM 48.6000 -51.5833 70° East 590 679 33,000  Level Gander Center
Thu 02:44:07 AM 48.6667 -51.3500 67° East 590 679 33,000  Level Gander Center
Thu 02:45:07 AM 48.7167 -51.1000 73° East 590 679 33,000  Level Gander Center
Thu 02:46:07 AM 48.7667 -50.8833 71° East 590 679 33,000  Level Gander Center
Thu 02:46:58 AM 48.8167 -50.6667 71° East 590 679 33,000  Level Moncton Center
Thu 02:47:58 AM 48.8500 -50.4500 77° East 590 679 33,000  Level Moncton Center
Thu 02:48:58 AM 48.9000 -50.2167 72° East 580 667 33,000  Level Moncton Center
Thu 02:50:07 AM 48.9667 -49.9500 69° East 580 667 33,000  Level Gander Center
Thu 02:51:07 AM 49.0167 -49.7000 73° East 590 679 33,000  Level Gander Center
Thu 02:52:07 AM 49.0833 -49.4833 65° Northeast 590 679 33,000  Level Gander Center
Thu 02:53:07 AM 49.1333 -49.2333 73° East 590 679 33,000  Level Gander Center
Thu 02:54:07 AM 49.1833 -49.0167 70° East 580 667 33,000  Level Gander Center
Thu 02:55:07 AM 49.2500 -48.7667 68° East 580 667 33,000  Level Gander Center
Thu 02:56:07 AM 49.3000 -48.5500 70° East 580 667 33,000  Level Gander Center
Thu 02:57:07 AM 49.3500 -48.3000 73° East 580 667 33,000  Level Gander Center
Thu 02:58:07 AM 49.4000 -48.0833 70° East 580 667 33,000  Level Gander Center
Thu 02:59:07 AM 49.4667 -47.8667 65° Northeast 570 656 33,000  Level Gander Center
Thu 03:00:07 AM 49.5167 -47.6333 72° East 570 656 33,000  Level Gander Center
Thu 03:01:07 AM 49.5667 -47.4167 70° East 570 656 33,000  Level Gander Center
Thu 03:02:07 AM 49.6167 -47.1833 72° East 580 667 33,000 24 Level Gander Center
Thu 03:04:00 AM 49.7118 -46.7651 70° East  Level FlightAware Approximate
Thu 03:11:00 AM 50.0303 -45.3009 71° East  Level FlightAware Approximate
Thu 03:12:00 AM 50.0742 -45.0901 72° East  Level FlightAware Approximate
Thu 03:13:00 AM 50.1178 -44.8790 72° East  Level FlightAware Approximate
Thu 03:14:00 AM 50.1610 -44.6675 72° East  Level FlightAware Approximate
Thu 03:15:00 AM 50.2039 -44.4556 72° East  Level FlightAware Approximate
Thu 03:16:00 AM 50.2463 -44.2433 73° East  Level FlightAware Approximate
Thu 03:17:00 AM 50.2884 -44.0307 73° East  Level FlightAware Approximate
Thu 03:18:00 AM 50.3301 -43.8177 73° East  Level FlightAware Approximate
Thu 03:19:00 AM 50.3713 -43.6043 73° East  Level FlightAware Approximate
Thu 03:20:00 AM 50.4122 -43.3905 73° East  Level FlightAware Approximate
Thu 03:21:00 AM 50.4527 -43.1764 73° East  Level FlightAware Approximate
Thu 03:22:00 AM 50.4928 -42.9619 74° East  Level FlightAware Approximate
Thu 03:23:00 AM 50.5325 -42.7470 74° East  Level FlightAware Approximate
Thu 03:24:00 AM 50.5718 -42.5318 74° East  Level FlightAware Approximate
Thu 03:25:00 AM 50.6107 -42.3162 74° East  Level FlightAware Approximate
Thu 03:26:00 AM 50.6492 -42.1003 74° East  Level FlightAware Approximate
Thu 03:27:00 AM 50.6874 -41.8840 74° East  Level FlightAware Approximate
Thu 03:28:00 AM 50.7251 -41.6674 75° East  Level FlightAware Approximate
Thu 03:29:00 AM 50.7624 -41.4504 75° East  Level FlightAware Approximate
Thu 03:30:00 AM 50.7993 -41.2331 75° East  Level FlightAware Approximate
Thu 03:31:00 AM 50.8358 -41.0154 75° East  Level FlightAware Approximate
Thu 03:32:00 AM 50.8719 -40.7974 75° East  Level FlightAware Approximate
Thu 03:33:00 AM 50.9076 -40.5791 75° East  Level FlightAware Approximate
Thu 03:34:00 AM 50.9428 -40.3604 76° East  Level FlightAware Approximate
Thu 03:35:00 AM 50.9777 -40.1414 76° East  Level FlightAware Approximate
Thu 03:36:00 AM 51.0034 -39.9200 86° East  Level FlightAware Approximate
Thu 03:37:00 AM 51.0127 -39.6943 86° East  Level FlightAware Approximate
Thu 03:38:00 AM 51.0215 -39.4686 86° East  Level FlightAware Approximate
Thu 03:39:00 AM 51.0299 -39.2428 87° East  Level FlightAware Approximate
Thu 03:40:00 AM 51.0379 -39.0169 87° East  Level FlightAware Approximate
Thu 03:41:00 AM 51.0455 -38.7909 87° East  Level FlightAware Approximate
Thu 03:42:00 AM 51.0526 -38.5648 87° East  Level FlightAware Approximate
Thu 03:43:00 AM 51.0592 -38.3387 87° East  Level FlightAware Approximate
Thu 03:44:00 AM 51.0655 -38.1125 87° East  Level FlightAware Approximate
Thu 03:45:00 AM 51.0713 -37.8863 88° East  Level FlightAware Approximate
Thu 03:46:00 AM 51.0766 -37.6600 88° East  Level FlightAware Approximate
Thu 03:47:00 AM 51.0815 -37.4337 88° East  Level FlightAware Approximate
Thu 03:48:00 AM 51.0860 -37.2073 88° East  Level FlightAware Approximate
Thu 03:49:00 AM 51.0901 -36.9809 88° East  Level FlightAware Approximate
Thu 03:50:00 AM 51.0937 -36.7544 88° East  Level FlightAware Approximate
Thu 03:51:00 AM 51.0968 -36.5279 89° East  Level FlightAware Approximate
Thu 03:52:00 AM 51.0996 -36.3014 89° East  Level FlightAware Approximate
Thu 03:53:00 AM 51.1019 -36.0748 89° East  Level FlightAware Approximate
Thu 03:54:00 AM 51.1037 -35.8483 89° East  Level FlightAware Approximate
Thu 03:55:00 AM 51.1051 -35.6217 89° East  Level FlightAware Approximate
Thu 03:56:00 AM 51.1061 -35.3951 90° East  Level FlightAware Approximate
Thu 03:57:00 AM 51.1067 -35.1685 90° East  Level FlightAware Approximate
Thu 03:58:00 AM 51.1068 -34.9418 90° East  Level FlightAware Approximate
Thu 03:59:00 AM 51.1064 -34.7152 90° East  Level FlightAware Approximate
Thu 04:00:00 AM 51.1057 -34.4886 90° East  Level FlightAware Approximate
Thu 04:01:00 AM 51.1045 -34.2621 90° East  Level FlightAware Approximate
Thu 04:02:00 AM 51.1028 -34.0355 91° East  Level FlightAware Approximate
Thu 04:03:00 AM 51.1007 -33.8089 91° East  Level FlightAware Approximate
Thu 04:04:00 AM 51.0982 -33.5824 91° East  Level FlightAware Approximate
Thu 04:05:00 AM 51.0953 -33.3559 91° East  Level FlightAware Approximate
Thu 04:06:00 AM 51.0919 -33.1294 91° East  Level FlightAware Approximate
Thu 04:07:00 AM 51.0880 -32.9029 91° East  Level FlightAware Approximate
Thu 04:08:00 AM 51.0838 -32.6765 92° East  Level FlightAware Approximate
Thu 04:09:00 AM 51.0790 -32.4502 92° East  Level FlightAware Approximate
Thu 04:10:00 AM 51.0739 -32.2239 92° East  Level FlightAware Approximate
Thu 04:11:00 AM 51.0683 -31.9976 92° East  Level FlightAware Approximate
Thu 04:12:00 AM 51.0623 -31.7714 92° East  Level FlightAware Approximate
Thu 04:13:00 AM 51.0559 -31.5452 93° East  Level FlightAware Approximate
Thu 04:14:00 AM 51.0490 -31.3192 93° East  Level FlightAware Approximate
Thu 04:15:00 AM 51.0417 -31.0954 93° East  Level FlightAware Approximate
Thu 04:16:00 AM 51.0340 -30.8718 93° East  Level FlightAware Approximate
Thu 04:17:00 AM 51.0259 -30.6482 93° East  Level FlightAware Approximate
Thu 04:18:00 AM 51.0174 -30.4247 93° East  Level FlightAware Approximate
Thu 04:19:00 AM 51.0084 -30.2013 94° East  Level FlightAware Approximate
Thu 04:20:00 AM 51.0009 -29.9780 86° East  Level FlightAware Approximate
Thu 04:21:00 AM 51.0102 -29.7546 86° East  Level FlightAware Approximate
Thu 04:22:00 AM 51.0191 -29.5312 86° East  Level FlightAware Approximate
Thu 04:23:00 AM 51.0276 -29.3077 86° East  Level FlightAware Approximate
Thu 04:24:00 AM 51.0356 -29.0841 87° East  Level FlightAware Approximate
Thu 04:25:00 AM 51.0432 -28.8604 87° East  Level FlightAware Approximate
Thu 04:26:00 AM 51.0503 -28.6367 87° East  Level FlightAware Approximate
Thu 04:27:00 AM 51.0571 -28.4129 87° East  Level FlightAware Approximate
Thu 04:28:00 AM 51.0634 -28.1890 87° East  Level FlightAware Approximate
Thu 04:29:00 AM 51.0693 -27.9651 88° East  Level FlightAware Approximate
Thu 04:30:00 AM 51.0747 -27.7411 88° East  Level FlightAware Approximate
Thu 04:31:00 AM 51.0798 -27.5171 88° East  Level FlightAware Approximate
Thu 04:32:00 AM 51.0844 -27.2930 88° East  Level FlightAware Approximate
Thu 04:33:00 AM 51.0885 -27.0689 88° East  Level FlightAware Approximate
Thu 04:34:00 AM 51.0923 -26.8447 88° East  Level FlightAware Approximate
Thu 04:35:00 AM 51.0956 -26.6205 89° East  Level FlightAware Approximate
Thu 04:36:00 AM 51.0985 -26.3963 89° East  Level FlightAware Approximate
Thu 04:37:00 AM 51.1009 -26.1721 89° East  Level FlightAware Approximate
Thu 04:38:00 AM 51.1030 -25.9478 89° East  Level FlightAware Approximate
Thu 04:39:00 AM 51.1046 -25.7235 89° East  Level FlightAware Approximate
Thu 04:40:00 AM 51.1057 -25.4992 89° East  Level FlightAware Approximate
Thu 04:41:00 AM 51.1065 -25.2749 90° East  Level FlightAware Approximate
Thu 04:42:00 AM 51.1068 -25.0506 90° East  Level FlightAware Approximate
Thu 04:43:00 AM 51.1067 -24.8263 90° East  Level FlightAware Approximate
Thu 04:44:00 AM 51.1061 -24.6019 90° East  Level FlightAware Approximate
Thu 04:45:00 AM 51.1051 -24.3776 90° East  Level FlightAware Approximate
Thu 04:46:00 AM 51.1037 -24.1533 90° East  Level FlightAware Approximate
Thu 04:47:00 AM 51.1019 -23.9291 91° East  Level FlightAware Approximate
Thu 04:48:00 AM 51.0996 -23.7048 91° East  Level FlightAware Approximate
Thu 04:49:00 AM 51.0970 -23.4806 91° East  Level FlightAware Approximate
Thu 04:50:00 AM 51.0938 -23.2563 91° East  Level FlightAware Approximate
Thu 04:51:00 AM 51.0903 -23.0322 91° East  Level FlightAware Approximate
Thu 04:52:00 AM 51.0863 -22.8080 92° East  Level FlightAware Approximate
Thu 04:53:00 AM 51.0819 -22.5839 92° East  Level FlightAware Approximate
Thu 04:54:00 AM 51.0770 -22.3599 92° East  Level FlightAware Approximate
Thu 04:55:00 AM 51.0718 -22.1359 92° East  Level FlightAware Approximate
Thu 04:56:00 AM 51.0661 -21.9119 92° East  Level FlightAware Approximate
Thu 04:57:00 AM 51.0600 -21.6880 92° East  Level FlightAware Approximate
Thu 04:58:00 AM 51.0534 -21.4637 93° East  Level FlightAware Approximate
Thu 04:59:00 AM 51.0464 -21.2394 93° East  Level FlightAware Approximate
Thu 05:00:00 AM 51.0390 -21.0152 93° East  Level FlightAware Approximate
Thu 05:01:00 AM 51.0312 -20.7911 93° East  Level FlightAware Approximate
Thu 05:02:00 AM 51.0229 -20.5671 93° East  Level FlightAware Approximate
Thu 05:03:00 AM 51.0142 -20.3431 93° East  Level FlightAware Approximate
Thu 05:04:00 AM 51.0050 -20.1193 94° East  Level FlightAware Approximate
Thu 05:05:00 AM 50.9967 -19.8954 93° East  Level FlightAware Approximate
Thu 05:06:00 AM 50.9894 -19.6714 93° East  Level FlightAware Approximate
Thu 05:07:00 AM 50.9817 -19.4475 93° East  Level FlightAware Approximate
Thu 05:08:00 AM 50.9735 -19.2237 93° East  Level FlightAware Approximate
Thu 05:09:00 AM 50.9649 -19.0000 93° East  Level FlightAware Approximate
Thu 05:10:00 AM 50.9559 -18.7763 94° East  Level FlightAware Approximate
Thu 05:11:00 AM 50.9464 -18.5528 94° East  Level FlightAware Approximate
Thu 05:12:00 AM 50.9366 -18.3293 94° East  Level FlightAware Approximate
Thu 05:13:00 AM 50.9263 -18.1059 94° East  Level FlightAware Approximate
Thu 05:14:00 AM 50.9156 -17.8827 94° East  Level FlightAware Approximate
Thu 05:15:00 AM 50.9044 -17.6595 94° East  Level FlightAware Approximate
Thu 05:16:00 AM 50.8928 -17.4364 95° East  Level FlightAware Approximate
Thu 05:17:00 AM 50.8808 -17.2135 95° East  Level FlightAware Approximate
Thu 05:18:00 AM 50.8684 -16.9907 95° East  Level FlightAware Approximate
Thu 05:19:00 AM 50.8555 -16.7680 95° East  Level FlightAware Approximate
Thu 05:20:00 AM 50.8423 -16.5454 95° East  Level FlightAware Approximate
Thu 05:21:00 AM 50.8286 -16.3230 95° East  Level FlightAware Approximate
Thu 05:22:00 AM 50.8144 -16.1006 96° East  Level FlightAware Approximate
Thu 05:23:00 AM 50.7999 -15.8785 96° East  Level FlightAware Approximate
Thu 05:24:00 AM 50.7850 -15.6564 96° East  Level FlightAware Approximate
Thu 05:25:00 AM 50.7696 -15.4345 96° East  Level FlightAware Approximate
Thu 05:26:00 AM 50.7538 -15.2128 96° East  Level FlightAware Approximate
Thu 05:27:00 AM 50.7375 -14.9912 97° East  Level FlightAware Approximate
Thu 05:28:00 AM 50.7209 -14.7697 97° East  Level FlightAware Approximate
Thu 05:29:00 AM 50.7038 -14.5485 97° East  Level FlightAware Approximate
Thu 05:30:00 AM 50.6864 -14.3273 97° East  Level FlightAware Approximate
Thu 05:31:00 AM 50.6685 -14.1064 97° East  Level FlightAware Approximate
Thu 05:32:00 AM 50.6501 -13.8856 97° East  Level FlightAware Approximate
Thu 05:33:00 AM 50.6314 -13.6650 98° East  Level FlightAware Approximate
Thu 05:34:00 AM 50.6123 -13.4446 98° East  Level FlightAware Approximate
Thu 05:35:00 AM 50.5927 -13.2243 98° East  Level FlightAware Approximate
Thu 05:36:00 AM 50.5727 -13.0042 98° East  Level FlightAware Approximate
Thu 05:37:00 AM 50.5523 -12.7844 98° East  Level FlightAware Approximate
Thu 05:38:00 AM 50.5315 -12.5647 98° East  Level FlightAware Approximate
Thu 05:39:00 AM 50.5103 -12.3452 99° East  Level FlightAware Approximate
Thu 05:40:00 AM 50.4887 -12.1259 99° East  Level FlightAware Approximate
Thu 05:41:00 AM 50.4666 -11.9068 99° East  Level FlightAware Approximate
Thu 05:42:00 AM 50.4441 -11.6879 99° East  Level FlightAware Approximate
Thu 05:43:00 AM 50.4213 -11.4693 99° East  Level FlightAware Approximate
Thu 05:44:00 AM 50.3980 -11.2508 99° East  Level FlightAware Approximate
Thu 05:45:00 AM 50.3743 -11.0326 100° East  Level FlightAware Approximate
Thu 05:46:00 AM 50.3502 -10.8146 100° East  Level FlightAware Approximate
Thu 05:47:00 AM 50.3257 -10.5968 100° East  Level FlightAware Approximate
Thu 05:48:00 AM 50.3008 -10.3792 100° East  Level FlightAware Approximate
Thu 05:49:00 AM 50.2755 -10.1618 100° East  Level FlightAware Approximate
Thu 05:49:20 AM 50.3636 -8.9744 100° East 460 529 37,000  Level FlightAware UK
Thu 05:49:50 AM 50.3511 -8.8766 101° East 458 527 37,000  Level FlightAware UK
Thu 05:50:20 AM 50.3386 -8.7788 101° East 458 527 37,000  Level FlightAware UK
Thu 05:50:50 AM 50.3259 -8.6812 101° East 456 525 37,000  Level FlightAware UK
Thu 05:51:20 AM 50.3130 -8.5839 102° East 456 525 37,000  Level FlightAware UK
Thu 05:51:50 AM 50.3000 -8.4867 102° East 454 522 37,000  Level FlightAware UK
Thu 05:52:20 AM 50.2873 -8.3894 102° East 458 527 37,000  Level FlightAware UK
Thu 05:52:50 AM 50.2744 -8.2925 102° East 456 525 37,000  Level FlightAware UK
Thu 05:53:20 AM 50.2613 -8.1962 102° East 456 525 37,000  Level FlightAware UK
Thu 05:53:50 AM 50.2481 -8.0998 102° East 458 527 37,000  Level FlightAware UK
Thu 05:54:20 AM 50.2350 -8.0045 102° East 452 520 37,000  Level FlightAware UK
Thu 05:54:50 AM 50.2218 -7.9098 102° East 458 527 37,000  Level FlightAware UK
Thu 05:55:20 AM 50.2087 -7.8155 102° East 454 522 37,000  Level FlightAware UK
Thu 05:55:50 AM 50.1958 -7.7213 102° East 446 513 37,000  Level FlightAware UK
Thu 05:56:20 AM 50.1827 -7.6275 102° East 450 518 37,000  Level FlightAware UK
Thu 05:56:50 AM 50.1693 -7.5341 103° East 446 513 37,000  Level FlightAware UK
Thu 05:57:20 AM 50.1559 -7.4409 103° East 440 506 37,000  Level FlightAware UK
Thu 05:57:50 AM 50.1426 -7.3479 103° East 438 504 37,000  Level FlightAware UK
Thu 05:58:20 AM 50.1293 -7.2549 103° East 438 504 37,000  Level FlightAware UK
Thu 05:58:50 AM 50.1160 -7.1618 103° East 438 504 37,000  Level FlightAware UK
Thu 05:59:20 AM 50.1025 -7.0682 103° East 446 513 37,000  Level FlightAware UK
Thu 05:59:51 AM 50.0887 -6.9735 103° East 452 520 37,000  Level FlightAware UK
Thu 06:00:21 AM 50.0748 -6.8791 103° East 452 520 37,000  Level FlightAware UK
Thu 06:00:51 AM 50.0605 -6.7845 103° East 454 522 37,000  Level FlightAware UK
Thu 06:01:21 AM 50.0465 -6.6897 103° East 456 525 37,000  Level FlightAware UK
Thu 06:01:51 AM 50.0323 -6.5950 103° East 448 516 37,000  Level FlightAware UK
Thu 06:02:33 AM 50.0121 -6.4631 103° East 450 518 37,000  Level FlightAware UK
Thu 06:03:03 AM 49.9978 -6.3688 103° East 458 527 37,000  Level FlightAware UK
Thu 06:03:33 AM 49.9832 -6.2743 104° East 450 518 37,000  Level FlightAware UK
Thu 06:04:03 AM 49.9687 -6.1797 103° East 452 520 37,000  Level FlightAware UK
Thu 06:04:33 AM 49.9541 -6.0851 103° East 450 518 37,000  Level FlightAware UK
Thu 06:05:03 AM 49.9395 -5.9901 103° East 452 520 37,000  Level FlightAware UK
Thu 06:05:33 AM 49.9246 -5.8960 104° East 452 520 37,000  Level FlightAware UK
Thu 06:06:03 AM 49.9099 -5.8018 104° East 460 529 37,000  Level FlightAware UK
Thu 06:06:33 AM 49.8948 -5.7078 104° East 458 527 37,000  Level FlightAware UK
Thu 06:07:03 AM 49.8799 -5.6140 104° East 466 536 37,000  Level FlightAware UK
Thu 06:07:33 AM 49.8647 -5.5205 104° East 462 532 37,000  Level FlightAware UK
Thu 06:08:03 AM 49.8497 -5.4273 104° East 458 527 37,000  Level FlightAware UK
Thu 06:08:33 AM 49.8346 -5.3346 104° East 464 534 37,000  Level FlightAware UK
Thu 06:09:09 AM 49.8164 -5.2241 104° East 464 534 37,000  Level FlightAware UK
Thu 06:10:03 AM 49.7893 -5.0598 104° East 464 534 37,000  Level FlightAware UK
Thu 06:10:39 AM 49.7713 -4.9517 104° East 458 527 37,000  Level FlightAware UK
Thu 06:11:09 AM 49.7564 -4.8624 105° East 452 520 37,000  Level FlightAware UK
Thu 06:11:45 AM 49.7385 -4.7563 105° East 454 522 37,000  Level FlightAware UK
Thu 06:12:15 AM 49.7234 -4.6678 105° East 450 518 37,000  Level FlightAware UK
Thu 06:12:57 AM 49.7076 -4.5441 101° East 448 516 37,000  Level FlightAware UK
Thu 06:13:57 AM 49.6896 -4.3663 99° East 452 520 37,000  Level FlightAware UK
Thu 06:14:27 AM 49.6807 -4.2776 99° East 454 522 37,000  Level FlightAware UK
Thu 06:14:57 AM 49.6716 -4.1886 99° East 452 520 37,000  Level FlightAware UK
Thu 06:15:27 AM 49.6626 -4.1002 99° East 448 516 37,000  Level FlightAware UK
Thu 06:16:09 AM 49.6500 -3.9766 99° East 448 516 37,000  Level FlightAware UK
Thu 06:17:03 AM 49.6404 -3.8156 95° East 452 520 37,000  Level FlightAware UK
Thu 06:17:45 AM 49.6327 -3.6900 95° East 450 518 37,000  Level FlightAware UK
Thu 06:18:21 AM 49.6261 -3.5814 95° East 450 518 37,000  Level FlightAware UK
Thu 06:19:09 AM 49.6166 -3.4364 96° East 456 525 37,000  Level FlightAware UK
Thu 06:19:40 AM 49.6105 -3.3443 96° East 460 529 37,000  Level FlightAware UK
Thu 06:20:10 AM 49.6044 -3.2527 96° East 460 529 37,000  Level FlightAware UK
Thu 06:20:40 AM 49.5982 -3.1610 96° East 460 529 37,000  Level FlightAware UK
Thu 06:22:04 AM 49.5804 -2.9027 96° East 462 532 37,000  Level FlightAware UK
Thu 06:22:40 AM 49.5727 -2.7916 96° East 460 529 37,000  Level FlightAware UK
Thu 06:23:22 AM 49.5632 -2.6613 96° East 462 532 37,000  Level FlightAware UK
Thu 06:23:58 AM 49.5554 -2.5496 96° East 470 541 37,000  Level FlightAware UK
Thu 06:24:46 AM 49.5441 -2.4000 97° East 466 536 37,000 -57 Level FlightAware UK
Thu 06:30:59 AM 49.4526 -1.2432 97° East 458 527 36,600 -145 Descending FlightAware UK
Thu 06:31:41 AM 49.4423 -1.1197 97° East 454 522 36,000 -786 Descending FlightAware UK
Thu 06:32:23 AM 49.4319 -0.9991 97° East 444 511 35,500 -769 Descending FlightAware UK
Thu 06:32:59 AM 49.4232 -0.8999 98° East 446 513 35,000 -1,182 Descending FlightAware UK
Thu 06:33:29 AM 49.4159 -0.8199 98° East 450 518 34,200 -1,800 Descending FlightAware UK
Thu 06:33:59 AM 49.4093 -0.7424 97° East 462 532 33,200 -2,000 Descending FlightAware UK
Thu 06:34:35 AM 49.4011 -0.6511 98° East 450 518 32,000 -2,273 Descending FlightAware UK
Thu 06:35:05 AM 49.3946 -0.5766 98° East 444 511 30,700 -2,328 Descending FlightAware UK
Thu 06:35:42 AM 49.3865 -0.4879 98° East 438 504 29,400 -1,670 Descending FlightAware UK
Thu 06:36:42 AM 49.3729 -0.3444 98° East 428 493 28,000 -1,000 Descending FlightAware UK
Thu 06:37:30 AM 49.3620 -0.2242 98° East 428 493 27,600 -1,643 Descending FlightAware UK
Thu 06:38:06 AM 49.3601 -0.1315 92° East 418 481 25,700 -2,167 Descending FlightAware UK
Thu 06:38:42 AM 49.3585 -0.0374 91° East 410 472 25,000 -636 Descending FlightAware UK
Thu 06:39:12 AM 49.3562 0.0388 93° East 402 463 25,000  Level FlightAware UK
Thu 06:39:48 AM 49.3527 0.1294 93° East 404 465 25,000  Level FlightAware UK
Thu 06:40:18 AM 49.3497 0.2062 93° East 408 470 25,000 -545 Level FlightAware UK
Thu 06:40:54 AM 49.3466 0.2983 93° East 402 463 24,400 -1,250 Descending FlightAware UK
Thu 06:41:54 AM 49.3416 0.4499 93° East 392 451 23,000 -933 Descending FlightAware UK
Thu 06:42:24 AM 49.3392 0.5236 93° East 392 451 23,000  Level FlightAware UK
Thu 06:43:06 AM 49.3358 0.6282 93° East 398 458 23,000  Level FlightAware UK
Thu 06:43:48 AM 49.3323 0.7340 93° East 396 456 23,000 -250 Level FlightAware UK
Thu 06:44:18 AM 49.3297 0.8096 93° East 394 453 22,700 -1,000 Descending FlightAware UK
Thu 06:44:48 AM 49.3270 0.8844 93° East 392 451 22,000 -1,357 Descending FlightAware UK
Thu 06:45:42 AM 49.3221 1.0182 93° East 384 442 20,800 -1,375 Descending FlightAware UK
Thu 06:46:24 AM 49.3182 1.1215 93° East 376 433 19,800 -1,808 Descending FlightAware UK
Thu 06:46:55 AM 49.3157 1.1956 93° East 372 428 18,600 -2,239 Descending FlightAware UK
Thu 06:47:31 AM 49.3120 1.2835 94° East 370 426 17,300 -2,273 Descending FlightAware UK
Thu 06:48:01 AM 49.3080 1.3561 95° East 358 412 16,100 -2,600 Descending FlightAware UK
Thu 06:48:31 AM 49.3039 1.4264 95° East 352 405 14,700 -2,600 Descending FlightAware UK
Thu 06:49:01 AM 49.2996 1.4959 95° East 348 400 13,500 -2,200 Descending FlightAware UK
Thu 06:49:31 AM 49.2953 1.5641 96° East 346 398 12,500 -1,500 Descending FlightAware UK
Thu 06:50:01 AM 49.2897 1.6326 97° East 336 387 12,000 -500 Descending FlightAware UK
Thu 06:50:31 AM 49.2840 1.7013 97° East 334 384 12,000 -300 Level FlightAware UK
Thu 06:51:01 AM 49.2784 1.7698 97° East 332 382 11,700 -769 Descending FlightAware UK
Thu 06:51:49 AM 49.2763 1.8770 92° East 326 375 11,000 -500 Descending FlightAware UK
Thu 06:52:25 AM 49.2752 1.9601 91° East 330 380 11,000  Level FlightAware UK
Thu 06:53:01 AM 49.2724 2.0426 93° East 330 380 11,000  Level FlightAware UK
Thu 06:53:31 AM 49.2703 2.1115 93° East 326 375 11,000  Level FlightAware UK
Thu 06:54:07 AM 49.2670 2.1933 93° East 322 371 11,000  Level FlightAware UK
Thu 06:55:49 AM 49.2585 2.3825 94° East 262 302 11,000  Level FlightAware UK
Thu 06:57:00 AM 49.1059 2.4867 156° South  Level Estimated
Thu 07:04:00 AM 49.0128 2.5500 156° South  Level Estimated
Thu 07:05:00 AM 49.0128 2.5500 180° South  Level Estimated
Thu 07:06:00 AM 49.0128 2.5500 180° South  Level Estimated
Thu 07:07:00 AM 49.0128 2.5500 180° South  Level Estimated
Thu 07:08:00 AM 49.0128 2.5500 180° South  Level Estimated
Thu 07:09:00 AM 49.0128 2.5500 180° South  Level Estimated
Thu 07:10:00 AM 49.0128 2.5500 180° South  Level Estimated
Thu 07:11:00 AM 49.0128 2.5500 180° South  Level Estimated
Thu 07:12:00 AM 49.0128 2.5500 180° South  Level Estimated

Login

Don't have an account? Register now (free) for customized features, flight alerts, and more!